Date String (YYYY-MM-DD hh:mm:ss) UTC,Instrument flags,Ambient pressure (hPa),Sample flow (lpm),Bypass flow (lpm),Sample temperature (°C),Ambient temperature (°C),ASC tube jacket temperature (°C),LED temperature (°C),Box temperature (°C),Sample RH (%),Span deviation,Mass concentration (μg/m³),Mass concentration (μg/m³),Mass concentration (μg/m³)
DateTimeUTC,F1_M11,P_M11,Q1_M11,Q2_M11,T1_M11,T2_M11,T3_M11,T4_M11,T5_M11,U1_M11,ZSPAN_M11,X0_M11,X2_M11,X1_M11
2022-11-10 20:00:00,,0820.6,5.00,0.00,23.5,21.8,00.0,32.4,25.2,06.8,0000.0,0001.24,0000.37,0000.21
2022-11-10 20:01:00,,0820.5,5.00,0.00,23.5,21.8,00.0,32.4,25.2,06.8,0000.0,0001.21,0000.36,0000.21
2022-11-10 20:02:00,,0820.5,5.00,0.00,23.4,21.8,00.0,32.4,25.2,06.8,0000.0,0001.21,0000.36,0000.21
2022-11-10 20:03:00,,0820.4,4.99,0.00,23.4,21.8,00.0,32.4,25.2,07.0,0000.0,0001.22,0000.37,0000.21
2022-11-10 20:04:00,,0820.6,5.00,0.00,23.4,21.8,00.0,32.4,25.2,07.1,0000.0,0001.21,0000.36,0000.21
2022-11-10 20:05:00,,0820.6,5.00,0.00,23.4,21.8,00.0,32.4,25.2,07.0,0000.0,0001.22,0000.36,0000.20
2022-11-10 20:06:00,,0820.5,5.01,0.00,23.4,21.8,00.0,32.3,25.2,07.1,0000.0,0001.18,0000.36,0000.20
2022-11-10 20:07:00,,0820.5,4.99,0.00,23.4,21.8,00.0,32.3,25.1,07.2,0000.0,0001.26,0000.40,0000.21
2022-11-10 20:08:00,,0820.5,4.99,0.00,23.4,21.8,00.0,32.3,25.1,07.2,0000.0,0000.98,0000.41,0000.21
2022-11-10 20:09:00,,0820.5,5.00,0.00,23.4,21.8,00.0,32.3,25.1,07.3,0000.0,0000.81,0000.38,0000.21
2022-11-10 20:10:00,,0820.5,5.00,0.00,23.4,21.8,00.0,32.3,25.1,07.5,0000.0,0000.80,0000.37,0000.20
2022-11-10 20:11:00,,0820.6,5.00,0.00,23.4,21.8,00.0,32.3,25.1,07.4,0000.0,0000.84,0000.40,0000.20
2022-11-10 20:12:00,,0820.6,5.00,0.00,23.4,21.7,00.0,32.3,25.1,07.3,0000.0,0001.02,0000.42,0000.20
2022-11-10 20:13:00,,0820.6,5.01,0.00,23.4,21.7,00.0,32.3,25.1,07.4,0000.0,0001.19,0000.42,0000.20
2022-11-10 20:14:00,,0820.7,5.00,0.00,23.4,21.7,00.0,32.3,25.1,07.4,0000.0,0001.11,0000.39,0000.20
2022-11-10 20:15:00,,0820.6,5.00,0.00,23.3,21.7,00.0,32.3,25.1,07.4,0000.0,0001.10,0000.39,0000.20
2022-11-10 20:16:00,,0820.6,4.99,0.00,23.3,21.7,00.0,32.3,25.1,07.4,0000.0,0001.14,0000.41,0000.20
2022-11-10 20:17:00,,0820.7,5.00,0.00,23.3,21.8,00.0,32.3,25.1,07.4,0000.0,0001.10,0000.39,0000.20
2022-11-10 20:18:00,,0820.6,5.00,0.00,23.3,21.8,00.0,32.2,25.1,07.4,0000.0,0000.99,0000.35,0000.20
2022-11-10 20:19:00,,0820.6,4.99,0.00,23.3,21.7,00.0,32.2,25.1,07.4,0000.0,0000.90,0000.31,0000.19
2022-11-10 20:20:00,,0820.7,4.99,0.00,23.3,21.7,00.0,32.2,25.1,07.4,0000.0,0000.92,0000.32,0000.19
2022-11-10 20:21:00,,0820.7,5.00,0.00,23.3,21.8,00.0,32.2,25.1,07.5,0000.0,0000.85,0000.33,0000.19
2022-11-10 20:22:00,,0820.7,5.01,0.00,23.3,21.8,00.0,32.2,25.1,07.4,0000.0,0000.98,0000.37,0000.19
2022-11-10 20:23:00,,0820.7,5.01,0.00,23.3,21.8,00.0,32.2,25.1,07.4,0000.0,0001.39,0000.36,0000.19
2022-11-10 20:24:00,,0820.7,5.00,0.00,23.3,21.8,00.0,32.2,25.1,07.5,0000.0,0001.67,0000.35,0000.19
2022-11-10 20:25:00,,0820.7,5.01,0.00,23.3,21.9,00.0,32.2,25.1,07.5,0000.0,0001.71,0000.37,0000.20
2022-11-10 20:26:00,,0820.8,4.98,0.00,23.3,21.8,00.0,32.2,25.1,07.4,0000.0,0001.71,0000.36,0000.20
2022-11-10 20:27:00,,0820.8,5.00,0.00,23.3,21.8,00.0,32.2,25.1,07.5,0000.0,0001.65,0000.34,0000.19
2022-11-10 20:28:00,,0820.9,5.00,0.00,23.3,21.8,00.0,32.2,25.1,07.5,0000.0,0001.68,0000.34,0000.19
2022-11-10 20:29:00,,0820.9,5.01,0.00,23.3,21.8,00.0,32.2,25.1,07.3,0000.0,0001.73,0000.36,0000.19
2022-11-10 20:30:00,,0820.9,5.00,0.00,23.3,21.8,00.0,32.2,25.1,07.4,0000.0,0001.98,0000.38,0000.19
2022-11-10 20:31:00,,0820.9,4.99,0.00,23.3,21.8,00.0,32.2,25.1,07.4,0000.0,0003.91,0000.37,0000.19
2022-11-10 20:32:00,,0820.9,4.99,0.00,23.3,21.8,00.0,32.2,25.1,07.4,0000.0,0003.92,0000.36,0000.19
2022-11-10 20:33:00,,0820.9,5.00,0.00,23.3,21.8,00.0,32.2,25.1,07.4,0000.0,0003.76,0000.30,0000.18
2022-11-10 20:34:00,,0821.0,5.01,0.00,23.3,21.8,00.0,32.2,25.1,07.4,0000.0,0003.21,0000.28,0000.18
2022-11-10 20:35:00,,0820.9,4.98,0.00,23.3,21.9,00.0,32.2,25.1,07.4,0000.0,0002.69,0000.28,0000.18
2022-11-10 20:36:00,,0821.0,5.00,0.00,23.3,21.9,00.0,32.2,25.1,07.3,0000.0,0002.69,0000.28,0000.18
2022-11-10 20:37:00,,0821.0,5.00,0.00,23.3,21.9,00.0,32.2,25.1,07.3,0000.0,0003.11,0000.30,0000.18
2022-11-10 20:38:00,,0820.9,5.01,0.00,23.3,21.9,00.0,32.2,25.1,07.4,0000.0,0003.22,0000.32,0000.18
2022-11-10 20:39:00,,0820.8,5.01,0.00,23.3,21.9,00.0,32.1,25.1,07.3,0000.0,0003.21,0000.32,0000.19
2022-11-10 20:40:00,,0820.8,4.99,0.00,23.3,21.8,00.0,32.1,25.1,07.2,0000.0,0003.19,0000.32,0000.19
2022-11-10 20:41:00,,0820.8,5.00,0.00,23.3,21.8,00.0,32.1,25.1,07.2,0000.0,0003.08,0000.29,0000.19
2022-11-10 20:42:00,,0820.8,5.00,0.00,23.3,21.8,00.0,32.1,25.1,07.2,0000.0,0001.12,0000.29,0000.20
2022-11-10 20:43:00,,0820.8,5.00,0.00,23.3,21.8,00.0,32.2,25.1,07.2,0000.0,0000.92,0000.29,0000.20
2022-11-10 20:44:00,,0820.8,5.01,0.00,23.3,21.8,00.0,32.1,25.1,07.2,0000.0,0000.95,0000.30,0000.21
2022-11-10 20:45:00,,0820.9,5.01,0.00,23.3,21.8,00.0,32.1,25.1,07.4,0000.0,0001.02,0000.33,0000.21
2022-11-10 20:46:00,,0820.8,4.98,0.00,23.3,21.7,00.0,32.1,25.1,07.4,0000.0,0001.03,0000.33,0000.21
2022-11-10 20:47:00,,0820.7,5.01,0.00,23.3,21.8,00.0,32.1,25.1,07.1,0000.0,0001.05,0000.34,0000.21
2022-11-10 20:48:00,,0820.8,5.00,0.00,23.3,21.8,00.0,32.1,25.1,07.1,0000.0,0000.63,0000.32,0000.21
2022-11-10 20:49:00,,0820.8,5.00,0.00,23.3,21.7,00.0,32.1,25.0,07.2,0000.0,0000.53,0000.31,0000.21
2022-11-10 20:50:00,,0820.9,5.00,0.00,23.3,21.7,00.0,32.1,25.0,07.1,0000.0,0000.55,0000.32,0000.22
2022-11-10 20:51:00,,0820.9,4.98,0.00,23.2,21.7,00.0,32.1,25.0,07.2,0000.0,0001.41,0000.33,0000.21
2022-11-10 20:52:00,,0820.9,5.00,0.00,23.2,21.7,00.0,32.1,25.0,07.3,0000.0,0001.61,0000.34,0000.21
2022-11-10 20:53:00,,0820.9,5.00,0.00,23.2,21.7,00.0,32.1,25.0,07.3,0000.0,0001.60,0000.33,0000.21
2022-11-10 20:54:00,,0820.9,5.01,0.00,23.2,21.7,00.0,32.1,25.0,07.3,0000.0,0001.77,0000.35,0000.21
2022-11-10 20:55:00,,0820.7,5.00,0.00,23.2,21.7,00.0,32.1,25.0,07.2,0000.0,0002.25,0000.38,0000.21
2022-11-10 20:56:00,,0820.8,4.99,0.00,23.2,21.7,00.0,32.1,25.0,07.2,0000.0,0002.39,0000.41,0000.20
2022-11-10 20:57:00,,0820.9,5.00,0.00,23.2,21.7,00.0,32.1,25.0,07.2,0000.0,0002.51,0000.46,0000.21
2022-11-10 20:58:00,,0821.0,5.01,0.00,23.2,21.7,00.0,32.1,25.0,07.2,0000.0,0002.56,0000.47,0000.21
2022-11-10 20:59:00,,0821.0,4.99,0.00,23.2,21.7,00.0,32.1,25.0,07.2,0000.0,0002.61,0000.48,0000.21
